Terug naar catalogus

STARLINK-1465

ActiefCommunicatieVLEO
NORAD 45731·PAYLOAD·🇺🇸 United States

Gelanceerd Jun 13, 2020 vanaf Cape Canaveral Space Force Station

Loading…

Volgende Passages (komende 24 uur)

TLE

VersSource: CelesTrak SupGP

Epoch: Sep 14, 2026, 21:14 UTC

1 45731C 20038B   26257.88520833  .00098282  00000+0  45583-3 0  2575
2 45731  53.0401  12.5135 0002593 344.8346  44.6377 15.82669864    10

Volg STARLINK-1465 in realtime met AllMySat

Download on the App Store